{"data":{"norad_id":66331,"epoch":"2026-09-20T02:55:24.387456Z","epoch_age_seconds":129237,"freshness":"FRESH","line1":"1 66331U 25253N   26263.12181004  .00011834  00000+0  43871-3 0  9994","line2":"2 66331  43.0026 194.1680 0001114 281.5430  78.5297 15.27592436 49987","mean_motion":15.27592436,"eccentricity":0.0001114,"inclination_deg":43.0026,"raan_deg":194.168,"arg_perigee_deg":281.543,"mean_anomaly_deg":78.5297,"bstar":0.00043871,"rev_number":4998,"period_min":94.265981296074,"perigee_km":482.24752645162,"apogee_km":483.77619041728,"semimajor_km":6861.1488584345,"source":"CELESTRAK","updated_at":"2026-09-21T09:00:35.875199Z"}}